Regional Weather Roundup
Issued by NWS

Home | Current Version | Previous Version | Graphics & Text | Print | Product List | Glossary Off
Versions: 1 2 3 4 5 6 7 8 9 10 11 12 13 14 15 16 17 18 19 20 21 22 23 24 25 26 27 28 29 30 31 32 33 34 35 36 37 38 39 40 41 42 43 44 45 46 47 48 49 50

000
ASUS43 KMKX 211010
RWRWI

WISCONSIN REGIONAL WEATHER ROUNDUP
NATIONAL WEATHER SERVICE MILWAUKEE/SULLIVAN WI
400 AM CST WED FEB 21 2018

NOTE: "FAIR" INDICATES FEW OR NO CLOUDS BELOW 12,000 FEET WITH NO
SIGNIFICANT WEATHER AND/OR OBSTRUCTIONS TO VISIBILITY.

WIZ001-002-006>008-014>016-023>028-211100-
NORTHWEST WISCONSIN

CITY           SKY/WX    TMP DP  RH WIND       PRES   REMARKS
SUPERIOR ARPT  FAIR       0  -4  82 SW7       30.40R WCI -13
ASHLAND        FAIR       3  -2  79 SW10      30.38R WCI -12
HAYWARD        FAIR       3  -1  83 SW5       30.36R WCI  -6
SIREN          FAIR       0  -3  84 SW7       30.42R WCI -13
CUMBERLAND     FAIR       0  -4  85 W6        30.39R WCI -12
RICE LAKE      FAIR       2  -1  85 CALM      30.42R
CHETEK         FAIR       3  -1  83 MISG      30.41R
LADYSMITH      FAIR       5   0  81 W6        30.39R WCI  -6
EAU CLAIRE     FAIR       5  -1  76 W6        30.43R WCI  -6
MENOMONIE      FAIR       6   0  76 W6        30.45R WCI  -5
NEW RICHMOND   FAIR      -1  -6  80 W5        30.44R WCI -11
OSCEOLA        FAIR       2  -2  83 W7        30.48R WCI -11
$$

WIZ003>005-009-010-017-018-211100-
NORTH CENTRAL WISCONSIN

CITY           SKY/WX    TMP DP  RH WIND       PRES   REMARKS
MANITOWISH WTR FLURRIES   5   3  91 W8        30.28R WCI  -8
ARBOR VITAE    FAIR       9   6  86 W6        30.28R WCI  -1
WOODRUFF       FAIR       9   6  86 W6        30.28R WCI  -1
RHINELANDER    FAIR       8   4  83 W8        30.28R WCI  -4
EAGLE RIVER    FAIR       8   4  82 W6        30.26R WCI  -2
LAND O LAKES   FLURRIES  10   6  85 W7        30.26R WCI  -2
PHILLIPS       FAIR       5   2  88 W3        30.32R
TOMAHAWK       FAIR       6   3  86 W3        30.32R
MEDFORD        FAIR       7   3  84 W6        30.33R WCI  -3
MERRILL        FAIR      10   6  82 CALM      30.33R
$$

WIZ029-030-035-036-043>047-211100-
CENTRAL WISCONSIN

CITY           SKY/WX    TMP DP  RH WIND       PRES   REMARKS
WAUSAU         FAIR      11   7  84 NW8       30.33R WCI  -1
MOSINEE        FAIR      12  10  92 W9        30.35R WCI   0
MARSHFIELD     FAIR      10   5  80 NW9       30.34R WCI  -3
STEVENS POINT  FAIR      12   8  85 NW5       30.37R WCI   4
WAUPACA        FAIR      19  12  72 W6        30.37R WCI  11
WAUTOMA        FAIR      17  12  80 W10       30.38R WCI   5
WISC RAPIDS    FAIR      14   8  77 NW8       30.38R WCI   3
CAMP DOUGLAS   FAIR      15  10  83 NW9       30.40R WCI   3
$$

WIZ011>013-019>022-031-037>040-048>050-211100-
NORTHEAST WISCONSIN

CITY           SKY/WX    TMP DP  RH WIND       PRES   REMARKS
ANTIGO         FAIR      10   7  86 NW8       30.30R WCI  -1
SHAWANO        FAIR      20  13  75 W6        30.34R WCI  12
OCONTO         FAIR      20  13  75 NW7       30.33R WCI  11
STURGEON BAY   MOCLDY    22  17  81 NW13      30.31R WCI  10
GREEN BAY      FAIR      21  13  71 NW15      30.33R WCI   8
MANITOWOC      CLOUDY    24  18  77 NW16G25   30.32R WCI  11
APPLETON       FAIR      19  12  73 W12       30.32R WCI   7
CLINTONVILLE   FAIR      19  11  72 NW9       30.35R WCI   7
OSHKOSH        FAIR      20  12  71 NW12      30.34R WCI   8
$$

WIZ032>034-041-042-053>061-211100-
SOUTHWEST WISCONSIN

CITY           SKY/WX    TMP DP  RH WIND       PRES   REMARKS
LA CROSSE      FAIR      13   6  74 NW10      30.46R WCI   0
SPARTA         FAIR      14  10  84 W7        30.43R WCI   4
VIROQUA        CLOUDY    13  10  91 W6        30.39R WCI   3
BOSCOBEL       FAIR      18  10  71 N6        30.44R WCI  10
PRAIRIE DU CHI FAIR      16   9  74 W10       30.45R WCI   3
PLATTEVILLE    FAIR      18  15  86 NW9       30.40R WCI   7
$$

WIZ056-057-062-063-064-067-068-211100-
SOUTH CENTRAL WISCONSIN

CITY           SKY/WX    TMP DP  RH WIND       PRES   REMARKS
REEDSBURG      FAIR      18  12  79 NW7       30.39R WCI   8
BARABOO/DELLS  FAIR      19  12  75 NW10      30.38R WCI   7
LONE ROCK      FAIR      20  14  77 NW7       30.41R WCI  11
MINERAL POINT  FAIR      21  19  93 NW8       30.37R WCI  12
MADISON        FAIR      20  12  71 N13       30.37R WCI   7
MIDDLETON      CLOUDY    23  17  75 NW9       30.37R WCI  13
WATERTOWN      CLOUDY    22  16  78 NW14G20   30.34R WCI   9
MONROE         CLOUDY    23  18  80 NW10      30.35R WCI  12
JANESVILLE     CLOUDY    27  19  74 N10       30.37R WCI  17
$$

WIZ051-052-058>065-066-070>072-211100-
SOUTHEAST WISCONSIN

CITY           SKY/WX    TMP DP  RH WIND       PRES   REMARKS
MILWAUKEE      CLOUDY    27  19  72 NW15      30.32R WCI  15
WAUKESHA       CLOUDY    23  18  80 NW15      30.33R WCI  10
MILWAUKEE/TIMM CLOUDY    25  14  63 NW17      30.33R WCI  11
RACINE         CLOUDY    27  20  75 NW9       30.34R WCI  18
BURLINGTON     MOCLDY    25  18  74 NW12      30.34R WCI  14
KENOSHA        CLOUDY    28  21  75 NW13      30.31R WCI  17
FOND DU LAC    FAIR      21  12  68 NW10      30.34R WCI  10
SHEBOYGAN      MOCLDY    23  17  78 NW14      30.32R WCI  11
WEST BEND      CLOUDY    23  18  80 NW12      30.33R WCI  12
JUNEAU         FAIR      20  13  75 NW13      30.35R WCI   8
$$

LSZ147-162-211100-
LAKE SUPERIOR

STATION/POSITION TIME  TEMP    WIND        PRES    WAVE
                       AIR SEA DIR/SP/G            HT/PER
                 (UTC) (F)     (DEG/KT/KT) (MB)    (FT/S)
DEVILS ISLAND    1000   13     270/ 12/ 16 1029.0R
SAXON HARBOR     0940    9     240/  4/  9 1027.8R
$$

LMZ867-665-643>646-211100-
LAKE MICHIGAN

STATION/POSITION TIME  TEMP    WIND        PRES    WAVE
                       AIR SEA DIR/SP/G            HT/PER
                 (UTC) (F)     (DEG/KT/KT) (MB)    (FT/S)
NORTHPORT PIER   0940   23                 1025.4R
KEWAUNEE LAKESHO 0942   25     310/ 10/ 15 1025.1R
SHEBOYGAN LAKESH 1000   24     300/ 14/ 16 1027.6R
PORT WASHINGTON  0930   24     310/  8/ 15 1027.4R
MILWAUKEE LAKESH 0950   26     310/ 11/ 15   N/A
KENOSHA   LAKESH 1000   28     320/ 17/ 20 1026.1
$$

TC  - TEMPERATURE IN CELSIUS
VSB - VISIBILITY IN STATUTE MILES
WCI - WIND CHILL INDEX
HX  - HEAT INDEX





USA.gov is the U.S. government's official web portal to all federal, state and local government web resources and services.